{"data":{"norad_id":40018,"intl_designator":"2014-033J","name":"APRIZESAT 9","alt_names":[],"object_type":"PAYLOAD","status":"ACTIVE","operator":null,"country":"US","launch_date":"2014-06-19","launch_site_code":"DLS","launch_vehicle":null,"mission":null,"orbit_class":"UNKNOWN","rcs_meters":0.1317,"size_class":null,"mass_kg":null,"dimensions":null,"purposes":["tech_demo"],"wikipedia_slug":null,"has_3d_model":false,"image_url":null,"decayed_at":null,"tle_current":{"epoch":"2026-05-24T22:14:11.825664Z","epoch_age_seconds":78499,"freshness":"FRESH","line1":"1 40018U 14033J   26144.92652576  .00000426  00000+0  70348-4 0  9990","line2":"2 40018  97.9029 278.6978 0064743 275.1804  84.2018 14.74180812640132","mean_motion":14.74180812,"eccentricity":0.0064743,"inclination_deg":97.9029,"raan_deg":278.6978,"arg_perigee_deg":275.1804,"mean_anomaly_deg":84.2018,"bstar":7.0348e-5,"rev_number":64013,"period_min":97.681369088394,"perigee_km":602.26516072851,"apogee_km":693.24059842319,"semimajor_km":7025.8898795759,"source":"CELESTRAK","updated_at":"2026-05-25T13:38:24.896759Z"}}}